This is the latest recevied weather packets stored in our database for station/object LRSV. If no packets are shown the sender has not sent any weather packets the latest 10 day(s).
| Time | Temp. | Humidity | Pressure | Rain* | Wind** | Luminosity | Snow |
|---|---|---|---|---|---|---|---|
| 1788608901 | 27.78° C | 45% | 1014 hPa | - | - | - | - |
| 1788608000 | 27.78° C | 45% | 1014 hPa | - | - | - | - |
| 1788607119 | 30° C | 38% | 1014 hPa | - | - | - | - |
| 1788606200 | 30° C | 38% | 1014 hPa | - | - | - | - |
| 1788605301 | 30° C | 38% | 1013 hPa | - | - | - | - |
| 1788604400 | 30° C | 38% | 1013 hPa | - | - | - | - |
| 1788603500 | 28.89° C | 40% | 1013 hPa | - | - | - | - |
| 1788602601 | 28.89° C | 40% | 1013 hPa | - | - | - | - |
| 1788601777 | 28.89° C | 37% | 1013 hPa | - | - | - | - |
| 1788600800 | 28.89° C | 37% | 1013 hPa | - | - | - | - |
| 1788599900 | 26.11° C | 48% | 1013 hPa | - | - | - | - |
| 1788599000 | 26.11° C | 48% | 1013 hPa | - | - | - | - |
| 1788598100 | 26.11° C | 45% | 1013 hPa | - | - | - | - |
| 1788597201 | 26.11° C | 45% | 1013 hPa | - | - | - | - |
| 1788596319 | 26.11° C | 48% | 1013 hPa | - | - | - | - |
| 1788595401 | 26.11° C | 48% | 1013 hPa | - | - | - | - |
| 1788594500 | 23.89° C | 50% | 1014 hPa | - | - | - | - |
| 1788593609 | 23.89° C | 50% | 1014 hPa | - | - | - | - |
| 1788592701 | 25° C | 47% | 1014 hPa | - | - | - | - |
| 1788591800 | 25° C | 47% | 1014 hPa | - | - | - | - |
| 1788590901 | 23.89° C | 50% | 1014 hPa | - | - | - | - |
| 1788590001 | 23.89° C | 50% | 1014 hPa | - | - | - | - |
| 1788589101 | 22.78° C | 53% | 1014 hPa | - | - | - | - |
| 1788588201 | 22.78° C | 53% | 1014 hPa | - | - | - | - |
| 1788587301 | 22.22° C | 57% | 1014 hPa | - | - | - | - |
* Rain since midnight (hover to see other rain measurements)
** Current wind speed in m/s (hover to see current wind gust speed)